| time (UTC) | temp F | wind direction | speed MPH | gust MPH | rain 1hr in | rain 24hr in | rain mn in | humidity % | barometer mb |
| 20260505002054 | 79 | 179 | 4.0 | 16.0 | 0.00 | 0.00 | 0.00 | 63 | 1005.4 |
| 20260505001556 | 79 | 175 | 4.0 | 14.0 | 0.00 | 0.00 | 0.00 | 63 | 1005.4 |
| 20260505001056 | 79 | 259 | 4.0 | 14.0 | 0.00 | 0.00 | 0.00 | 62 | 1005.4 |
| 20260505000558 | 80 | 149 | 3.0 | 14.0 | 0.00 | 0.00 | 0.00 | 61 | 1005.5 |
| 20260505000100 | 80 | 264 | 3.0 | 13.0 | 0.00 | 0.00 | 0.00 | 61 | 1005.6 |
| 20260504235555 | 80 | 193 | 2.0 | 12.0 | 0.00 | 0.00 | 0.00 | 61 | 1005.5 |
| 20260504235057 | 80 | 189 | 4.0 | 12.0 | 0.00 | 0.00 | 0.00 | 60 | 1005.5 |
| 20260504234616 | 81 | 181 | 2.0 | 15.0 | 0.00 | 0.00 | 0.00 | 60 | 1005.4 |
| 20260504234054 | 80 | 29 | 3.0 | 15.0 | 0.00 | 0.00 | 0.00 | 60 | 1005.6 |
| 20260504233554 | 81 | 186 | 5.0 | 17.0 | 0.00 | 0.00 | 0.00 | 60 | 1005.5 |
| 20260504233057 | 80 | 194 | 4.0 | 17.0 | 0.00 | 0.00 | 0.00 | 60 | 1005.4 |
| 20260504232556 | 80 | 144 | 5.0 | 13.0 | 0.00 | 0.00 | 0.00 | 60 | 1005.5 |
| 20260504232054 | 80 | 83 | 5.0 | 13.0 | 0.00 | 0.00 | 0.00 | 60 | 1005.5 |
| 20260504231601 | 81 | 193 | 5.0 | 13.0 | 0.00 | 0.00 | 0.00 | 59 | 1005.6 |
| 20260504231054 | 81 | 189 | 4.0 | 18.0 | 0.00 | 0.00 | 0.00 | 58 | 1005.5 |
| 20260504230557 | 81 | 209 | 4.0 | 18.0 | 0.00 | 0.00 | 0.00 | 57 | 1005.5 |
| 20260504230101 | 82 | 192 | 4.0 | 20.0 | 0.00 | 0.00 | 0.00 | 57 | 1005.8 |
| 20260504225555 | 82 | 189 | 4.0 | 20.0 | 0.00 | 0.00 | 0.00 | 57 | 1006.0 |
| 20260504225057 | 83 | 182 | 3.0 | 13.0 | 0.00 | 0.00 | 0.00 | 56 | 1005.9 |
| 20260504224606 | 83 | 206 | 3.0 | 16.0 | 0.00 | 0.00 | 0.00 | 56 | 1005.8 |
| 20260504224056 | 84 | 132 | 5.0 | 17.0 | 0.00 | 0.00 | 0.00 | 56 | 1005.9 |
| 20260504223555 | 83 | 224 | 5.0 | 17.0 | 0.00 | 0.00 | 0.00 | 56 | 1005.9 |
| 20260504223057 | 83 | 207 | 5.0 | 16.0 | 0.00 | 0.00 | 0.00 | 56 | 1005.9 |
| 20260504222555 | 84 | 207 | 4.0 | 16.0 | 0.00 | 0.00 | 0.00 | 56 | 1005.9 |
| 20260504222054 | 83 | 219 | 4.0 | 15.0 | 0.00 | 0.00 | 0.00 | 57 | 1006.0 |
| 20260504221604 | 84 | 213 | 5.0 | 19.0 | 0.00 | 0.00 | 0.00 | 55 | 1006.1 |
| 20260504221054 | 84 | 163 | 3.0 | 19.0 | 0.00 | 0.00 | 0.00 | 56 | 1006.1 |
| 20260504220555 | 84 | 232 | 3.0 | 19.0 | 0.00 | 0.00 | 0.00 | 56 | 1006.1 |
| 20260504220057 | 84 | 163 | 5.0 | 19.0 | 0.00 | 0.00 | 0.00 | 55 | 1006.1 |
| 20260504215556 | 84 | 178 | 3.0 | 15.0 | 0.00 | 0.00 | 0.00 | 55 | 1006.2 |
| 20260504215055 | 84 | 276 | 5.0 | 21.0 | 0.00 | 0.00 | 0.00 | 55 | 1006.1 |
| 20260504214602 | 84 | 171 | 4.0 | 21.0 | 0.00 | 0.00 | 0.00 | 54 | 1006.2 |
| 20260504214054 | 84 | 206 | 3.0 | 15.0 | 0.00 | 0.00 | 0.00 | 55 | 1006.3 |
| 20260504213554 | 84 | 183 | 5.0 | 15.0 | 0.00 | 0.00 | 0.00 | 55 | 1006.3 |
| 20260504213103 | 84 | 176 | 5.0 | 19.0 | 0.00 | 0.00 | 0.00 | 56 | 1006.4 |
| 20260504212554 | 83 | 215 | 3.0 | 19.0 | 0.00 | 0.00 | 0.00 | 57 | 1006.7 |
| 20260504212056 | 83 | 214 | 4.0 | 18.0 | 0.00 | 0.00 | 0.00 | 56 | 1007.0 |
| 20260504211554 | 84 | 219 | 6.0 | 18.0 | 0.00 | 0.00 | 0.00 | 55 | 1007.1 |
| 20260504211058 | 84 | 51 | 5.0 | 16.0 | 0.00 | 0.00 | 0.00 | 55 | 1006.9 |
| 20260504210555 | 84 | 159 | 4.0 | 16.0 | 0.00 | 0.00 | 0.00 | 55 | 1007.1 |
| 20260504210105 | 84 | 200 | 3.0 | 15.0 | 0.00 | 0.00 | 0.00 | 55 | 1007.2 |
| 20260504205558 | 84 | 0 | 5.0 | 15.0 | 0.00 | 0.00 | 0.00 | 55 | 1007.3 |
| 20260504205058 | 84 | 86 | 3.0 | 14.0 | 0.00 | 0.00 | 0.00 | 55 | 1007.4 |
| 20260504204637 | 84 | 224 | 6.0 | 14.0 | 0.00 | 0.00 | 0.00 | 56 | 1007.5 |
| 20260504204054 | 84 | 164 | 2.0 | 12.0 | 0.00 | 0.00 | 0.00 | 55 | 1007.5 |
| 20260504203554 | 84 | 183 | 3.0 | 12.0 | 0.00 | 0.00 | 0.00 | 56 | 1007.6 |
| 20260504203055 | 84 | 158 | 4.0 | 17.0 | 0.00 | 0.00 | 0.00 | 54 | 1007.6 |
| 20260504202553 | 84 | 167 | 5.0 | 17.0 | 0.00 | 0.00 | 0.00 | 55 | 1007.6 |
| 20260504202055 | 84 | 206 | 4.0 | 14.0 | 0.00 | 0.00 | 0.00 | 54 | 1007.7 |
| 20260504201555 | 84 | 220 | 5.0 | 15.0 | 0.00 | 0.00 | 0.00 | 54 | 1007.8 |
| 20260504201054 | 84 | 188 | 4.0 | 15.0 | 0.00 | 0.00 | 0.00 | 53 | 1007.9 |
| 20260504200555 | 84 | 226 | 5.0 | 13.0 | 0.00 | 0.00 | 0.00 | 53 | 1008.0 |
| 20260504200059 | 84 | 201 | 5.0 | 15.0 | 0.00 | 0.00 | 0.00 | 53 | 1008.3 |
| 20260504195553 | 84 | 178 | 6.0 | 15.0 | 0.00 | 0.00 | 0.00 | 53 | 1008.5 |
| 20260504195058 | 84 | 286 | 3.0 | 19.0 | 0.00 | 0.00 | 0.00 | 54 | 1008.6 |
| 20260504194555 | 84 | 117 | 8.0 | 19.0 | 0.00 | 0.00 | 0.00 | 55 | 1008.6 |
| 20260504194055 | 84 | 168 | 4.0 | 18.0 | 0.00 | 0.00 | 0.00 | 52 | 1008.6 |
| 20260504193559 | 84 | 192 | 5.0 | 16.0 | 0.00 | 0.00 | 0.00 | 54 | 1008.7 |
| 20260504193053 | 84 | 207 | 7.0 | 16.0 | 0.00 | 0.00 | 0.00 | 53 | 1008.7 |
| 20260504192554 | 84 | 211 | 5.0 | 16.0 | 0.00 | 0.00 | 0.00 | 53 | 1008.8 |
| 20260504192054 | 84 | 229 | 6.0 | 15.0 | 0.00 | 0.00 | 0.00 | 54 | 1008.7 |
| 20260504191556 | 84 | 211 | 3.0 | 12.0 | 0.00 | 0.00 | 0.00 | 54 | 1008.9 |
| 20260504191054 | 84 | 209 | 4.0 | 13.0 | 0.00 | 0.00 | 0.00 | 54 | 1008.9 |
| 20260504190554 | 83 | 244 | 5.0 | 13.0 | 0.00 | 0.00 | 0.00 | 54 | 1009.0 |
| 20260504185555 | 82 | 198 | 3.0 | 17.0 | 0.00 | 0.00 | 0.00 | 56 | 1009.3 |
| 20260504185055 | 82 | 299 | 7.0 | 17.0 | 0.00 | 0.00 | 0.00 | 53 | 1009.4 |
| 20260504184605 | 82 | 241 | 5.0 | 16.0 | 0.00 | 0.00 | 0.00 | 56 | 1009.4 |
| 20260504184055 | 81 | 279 | 5.0 | 18.0 | 0.00 | 0.00 | 0.00 | 56 | 1009.5 |
| 20260504183554 | 81 | 198 | 5.0 | 21.0 | 0.00 | 0.00 | 0.00 | 55 | 1009.6 |
| 20260504183100 | 81 | 163 | 4.0 | 21.0 | 0.00 | 0.00 | 0.00 | 56 | 1009.7 |
| 20260504182559 | 81 | 198 | 5.0 | 18.0 | 0.00 | 0.00 | 0.00 | 55 | 1009.8 |
| 20260504182054 | 80 | 211 | 5.0 | 18.0 | 0.00 | 0.00 | 0.00 | 56 | 1010.0 |
| 20260504181555 | 80 | 151 | 5.0 | 14.0 | 0.00 | 0.00 | 0.00 | 56 | 1009.9 |
| 20260504181055 | 80 | 225 | 6.0 | 14.0 | 0.00 | 0.00 | 0.00 | 56 | 1010.1 |
| 20260504180557 | 80 | 196 | 6.0 | 18.0 | 0.00 | 0.00 | 0.00 | 56 | 1010.2 |
| 20260504180058 | 80 | 197 | 7.0 | 18.0 | 0.00 | 0.00 | 0.00 | 55 | 1010.3 |
| 20260504175557 | 80 | 194 | 6.0 | 19.0 | 0.00 | 0.00 | 0.00 | 56 | 1010.3 |
| 20260504175054 | 80 | 236 | 6.0 | 19.0 | 0.00 | 0.00 | 0.00 | 57 | 1010.4 |
| 20260504174601 | 80 | 123 | 6.0 | 16.0 | 0.00 | 0.00 | 0.00 | 56 | 1010.4 |
| 20260504174054 | 80 | 173 | 6.0 | 17.0 | 0.00 | 0.00 | 0.00 | 57 | 1010.4 |
| 20260504173555 | 79 | 241 | 6.0 | 21.0 | 0.00 | 0.00 | 0.00 | 56 | 1010.6 |
| 20260504173058 | 79 | 154 | 6.0 | 21.0 | 0.00 | 0.00 | 0.00 | 56 | 1010.7 |
| 20260504172554 | 79 | 150 | 6.0 | 18.0 | 0.00 | 0.00 | 0.00 | 56 | 1010.7 |
| 20260504172055 | 79 | 187 | 6.0 | 23.0 | 0.00 | 0.00 | 0.00 | 58 | 1010.9 |
| 20260504171655 | 78 | 246 | 5.0 | 23.0 | 0.00 | 0.00 | 0.00 | 57 | 1011.0 |
| 20260504171056 | 78 | 222 | 8.0 | 21.0 | 0.00 | 0.00 | 0.00 | 57 | 1011.0 |
| 20260504170555 | 78 | 125 | 6.0 | 20.0 | 0.00 | 0.00 | 0.00 | 56 | 1011.0 |
| 20260504151055 | 73 | 216 | 5.0 | 15.0 | 0.00 | 0.00 | 0.00 | 62 | 1012.1 |
| 20260504150557 | 73 | 192 | 6.0 | 17.0 | 0.00 | 0.00 | 0.00 | 61 | 1012.0 |
| 20260504141054 | 69 | 173 | 5.0 | 16.0 | 0.00 | 0.00 | 0.00 | 68 | 1012.3 |
| 20260504140555 | 69 | 235 | 5.0 | 13.0 | 0.00 | 0.00 | 0.00 | 68 | 1012.3 |
| 20260504130557 | 63 | 360 | 2.0 | 6.0 | 0.00 | 0.00 | 0.00 | 73 | 1012.4 |
| 20260504110555 | 62 | 197 | 3.0 | 8.0 | 0.00 | 0.00 | 0.00 | 73 | 1012.2 |
| 20260504100554 | 61 | 180 | 2.0 | 9.0 | 0.00 | 0.00 | 0.00 | 72 | 1012.5 |
| 20260504100104 | 61 | 180 | 3.0 | 9.0 | 0.00 | 0.00 | 0.00 | 72 | 1012.6 |
| 20260504081558 | 61 | 200 | 1.0 | 6.0 | 0.00 | 0.00 | 0.00 | 68 | 1013.2 |
| 20260504081055 | 61 | 189 | 2.0 | 6.0 | 0.00 | 0.00 | 0.00 | 68 | 1013.2 |
| 20260504080554 | 61 | 188 | 1.0 | 5.0 | 0.00 | 0.00 | 0.00 | 68 | 1013.3 |
| 20260504070104 | 63 | 217 | 2.0 | 8.0 | 0.00 | 0.00 | 0.00 | 65 | 1013.8 |
| 20260504050555 | 65 | 180 | 2.0 | 6.0 | 0.00 | 0.00 | 0.00 | 60 | 1015.1 |
| 20260504050107 | 65 | 204 | 2.0 | 8.0 | 0.00 | 0.00 | 0.00 | 60 | 1015.2 |
| 20260504045554 | 65 | 208 | 2.0 | 8.0 | 0.00 | 0.00 | 0.00 | 59 | 1015.2 |
| 20260504045054 | 65 | 215 | 3.0 | 8.0 | 0.00 | 0.00 | 0.00 | 60 | 1015.2 |
| 20260504044559 | 65 | 190 | 2.0 | 7.0 | 0.00 | 0.00 | 0.00 | 60 | 1015.3 |
| 20260504044054 | 65 | 198 | 1.0 | 7.0 | 0.00 | 0.00 | 0.00 | 60 | 1015.2 |
| 20260504043554 | 65 | 205 | 2.0 | 6.0 | 0.00 | 0.00 | 0.00 | 59 | 1015.3 |
| 20260504043059 | 65 | 184 | 1.0 | 6.0 | 0.00 | 0.00 | 0.00 | 59 | 1015.4 |
| 20260504042555 | 65 | 0 | 1.0 | 6.0 | 0.00 | 0.00 | 0.00 | 59 | 1015.4 |
| 20260504042054 | 65 | 188 | 0.0 | 3.0 | 0.00 | 0.00 | 0.00 | 59 | 1015.5 |
| 20260504041555 | 65 | 0 | 0.0 | 3.0 | 0.00 | 0.00 | 0.00 | 58 | 1015.5 |
| 20260504041055 | 66 | 0 | 0.0 | 3.0 | 0.00 | 0.00 | 0.00 | 57 | 1015.5 |
| 20260504040557 | 66 | 0 | 0.0 | 3.0 | 0.00 | 0.00 | 0.00 | 57 | 1015.6 |
| 20260504035555 | 66 | 360 | 0.0 | 5.0 | 0.00 | 0.00 | 0.00 | 56 | 1015.6 |
| 20260504035055 | 66 | 360 | 0.0 | 5.0 | 0.00 | 0.00 | 0.00 | 55 | 1015.6 |
| 20260504034611 | 67 | 0 | 0.0 | 4.0 | 0.00 | 0.00 | 0.00 | 55 | 1015.4 |
| 20260504034054 | 67 | 0 | 0.0 | 5.0 | 0.00 | 0.00 | 0.00 | 54 | 1015.4 |
| 20260504033555 | 67 | 360 | 0.0 | 5.0 | 0.00 | 0.00 | 0.00 | 54 | 1015.4 |
| 20260504033056 | 67 | 0 | 0.0 | 5.0 | 0.00 | 0.00 | 0.00 | 53 | 1015.4 |
| 20260504032555 | 68 | 360 | 1.0 | 4.0 | 0.00 | 0.00 | 0.00 | 53 | 1015.2 |
| 20260504032054 | 68 | 0 | 1.0 | 6.0 | 0.00 | 0.00 | 0.00 | 52 | 1015.3 |
| 20260504031555 | 68 | 360 | 1.0 | 6.0 | 0.00 | 0.00 | 0.00 | 51 | 1015.3 |
| 20260504031054 | 68 | 0 | 1.0 | 5.0 | 0.00 | 0.00 | 0.00 | 51 | 1015.4 |
| 20260504030554 | 69 | 203 | 1.0 | 6.0 | 0.00 | 0.00 | 0.00 | 50 | 1015.3 |
| 20260504030053 | 69 | 204 | 1.0 | 7.0 | 0.00 | 0.00 | 0.00 | 50 | 1015.3 |
| 20260504025555 | 69 | 0 | 1.0 | 7.0 | 0.00 | 0.00 | 0.00 | 49 | 1015.3 |
| 20260504025054 | 69 | 189 | 1.0 | 6.0 | 0.00 | 0.00 | 0.00 | 49 | 1015.3 |
| 20260504024556 | 70 | 196 | 1.0 | 9.0 | 0.00 | 0.00 | 0.00 | 49 | 1015.2 |
| 20260504024055 | 70 | 185 | 2.0 | 9.0 | 0.00 | 0.00 | 0.00 | 48 | 1015.2 |
| 20260504023555 | 70 | 0 | 2.0 | 9.0 | 0.00 | 0.00 | 0.00 | 48 | 1015.2 |
| 20260504023056 | 70 | 194 | 1.0 | 9.0 | 0.00 | 0.00 | 0.00 | 48 | 1015.2 |
| 20260504022555 | 70 | 196 | 2.0 | 6.0 | 0.00 | 0.00 | 0.00 | 48 | 1015.2 |
| 20260504022054 | 70 | 0 | 2.0 | 9.0 | 0.00 | 0.00 | 0.00 | 48 | 1015.2 |
| 20260504021556 | 70 | 252 | 1.0 | 9.0 | 0.00 | 0.00 | 0.00 | 48 | 1015.2 |
| 20260504021056 | 70 | 0 | 1.0 | 9.0 | 0.00 | 0.00 | 0.00 | 48 | 1015.0 |
| 20260504020554 | 70 | 202 | 2.0 | 9.0 | 0.00 | 0.00 | 0.00 | 47 | 1015.0 |
| 20260504020057 | 71 | 148 | 1.0 | 6.0 | 0.00 | 0.00 | 0.00 | 47 | 1015.0 |
| 20260504015555 | 71 | 0 | 1.0 | 6.0 | 0.00 | 0.00 | 0.00 | 47 | 1015.1 |
| 20260504015054 | 71 | 189 | 1.0 | 6.0 | 0.00 | 0.00 | 0.00 | 47 | 1015.2 |
| 20260504014616 | 71 | 192 | 0.0 | 5.0 | 0.00 | 0.00 | 0.00 | 47 | 1015.0 |
| 20260504014055 | 72 | 0 | 0.0 | 5.0 | 0.00 | 0.00 | 0.00 | 46 | 1014.9 |
| 20260504013557 | 72 | 0 | 1.0 | 5.0 | 0.00 | 0.00 | 0.00 | 46 | 1014.9 |
| 20260504013056 | 72 | 195 | 1.0 | 5.0 | 0.00 | 0.00 | 0.00 | 45 | 1014.9 |
| 20260504012555 | 73 | 0 | 1.0 | 6.0 | 0.00 | 0.00 | 0.00 | 44 | 1014.9 |
| 20260504012054 | 73 | 167 | 0.0 | 6.0 | 0.00 | 0.00 | 0.00 | 44 | 1014.9 |
| 20260504011559 | 73 | 207 | 1.0 | 5.0 | 0.00 | 0.00 | 0.00 | 44 | 1014.9 |
| 20260504011055 | 74 | 136 | 1.0 | 5.0 | 0.00 | 0.00 | 0.00 | 44 | 1015.0 |
| 20260504010554 | 74 | 209 | 0.0 | 5.0 | 0.00 | 0.00 | 0.00 | 44 | 1015.0 |
| 20260504010059 | 74 | 186 | 1.0 | 6.0 | 0.00 | 0.00 | 0.00 | 43 | 1014.8 |
| 20260504005555 | 75 | 195 | 1.0 | 6.0 | 0.00 | 0.00 | 0.00 | 42 | 1014.7 |
| 20260504005055 | 75 | 188 | 2.0 | 6.0 | 0.00 | 0.00 | 0.00 | 42 | 1014.7 |
| 20260504004555 | 76 | 0 | 1.0 | 6.0 | 0.00 | 0.00 | 0.00 | 41 | 1014.7 |
| 20260504004054 | 76 | 197 | 0.0 | 5.0 | 0.00 | 0.00 | 0.00 | 40 | 1014.6 |
| 20260504003554 | 77 | 195 | 2.0 | 5.0 | 0.00 | 0.00 | 0.00 | 39 | 1014.7 |
| 20260504003100 | 78 | 211 | 1.0 | 10.0 | 0.00 | 0.00 | 0.00 | 39 | 1014.9 |
| 20260504002555 | 79 | 176 | 3.0 | 10.0 | 0.00 | 0.00 | 0.00 | 38 | 1014.9 |